Portada
METAR-TAF:

METAR-TAF

Aeroports :

Tabriz, Iran

latitud: 38-05N, longitud: 046-17E, altitud: 1367 m

Observació

L'informe es va fer fa 13 minuts, a les 01:00 UTC
Vent 10 kt del Nord-Est
Temperatura 1°C
Humitat 51%
Pressió 1025 hPa
Visibilitat 10 km o més
sense núvols per sota de 1500 mi sense presència de cumulonimbus.

METAR: OITT 140100Z 04010KT CAVOK 01/M08 Q1025 A3027

Hora: 04:43 (01:13 UTC)

Pronòstic

L'informe es va fer fa 2 hores i 13 minuts, a les 23:00 UTC
Pronòstic vàlid del 14 a les 00 UTC al 15 a les 06 UTC
Vent 6 kt del Est
Visibilitat: 7000 m
Temporalment
l' 14 a les 09 UTC al 14 a les 15 UTC
Vent 12 kt del Oest
Escasses núvols a una alçada de 3500 ft, Cumulus congestus.
Núvols disperses a una alçada de 10000 ft

TAF: OITT 132300Z 1400/1506 09006KT 7000 NSC TEMPO 1409/1415 27012KT FEW035TCU SCT100

Observacions i pronòstics meteorològics de més de 4000 aeroports (METAR i TAF).

Les estacions disponibles són els punts grocs i vermells al mapa.

Posi el ratolí al punt desitjat per veure el nom de l'estació.

Feu clic per veure les observacions i els pronòstics meteorològics.

Per canviar el mapa: feu clic els botons verds amb una creu de color negre per apropar; al botó verd amb un guió per allunyar la imatge; o en les fletxes verdes per a mapes adjacents.


METAR-TAF: